Regional Weather Roundup
Issued by NWS

Home | Current Version | Previous Version | Graphics & Text | Print | Product List | Glossary On
Versions: 1 2 3 4 5 6 7 8 9 10 11 12 13 14 15 16 17 18 19 20 21 22 23 24 25 26 27
000
ASUS45 KBOI 230210
RWRID

IDAHO REGIONAL WEATHER ROUNDUP
NATIONAL WEATHER SERVICE BOISE ID
800 PM MDT THU JUN 22 2017

NOTE: "FAIR" INDICATES FEW OR NO CLOUDS BELOW 12000 FEET
WITH NO SIGNIFICANT WEATHER AND/OR OBSTRUCTIONS TO VISIBILITY

IDZ012-014-230300-
SOUTHWEST IDAHO


CITY           SKY/WX    TMP DP  RH WIND       PRES   REMARKS
BOISE          SUNNY     80  28  15 NW23G29   30.06R
CALDWELL       SUNNY     78  38  23 NW13      30.06S
MOUNTAIN HOME  SUNNY     80  26  14 NW22      30.05R
$$

IDZ016-017-230300-
SOUTHCENTRAL IDAHO


CITY           SKY/WX    TMP DP  RH WIND       PRES   REMARKS
BURLEY         SUNNY     72  28  19 W14       30.04S
JEROME         SUNNY     74  25  16 W18G25    30.05S
TWIN FALLS     SUNNY     74  21  13 W20G25    30.07R
$$

IDZ019>023-230300-
SOUTHEAST IDAHO


CITY           SKY/WX    TMP DP  RH WIND       PRES   REMARKS
IDAHO FALLS    SUNNY     74  37  26 S12       30.06R
POCATELLO      MOSUNNY   74  32  21 SW20      30.06S
REXBURG        MOSUNNY   72  43  35 W6        30.07R
$$

IDZ006-010-011-018-031-032-230300-
CENTRAL IDAHO MOUNTAINS


CITY           SKY/WX    TMP DP  RH WIND       PRES   REMARKS
MCCALL         SUNNY     66  24  20 N10       30.21R
HAILEY         SUNNY     73  48  40 W5        30.07R
STANLEY          N/A     68  29  23 N9        30.20R
SALMON         SUNNY     70  27  19 N12       30.12R
CHALLIS        SUNNY     70  30  22 N14       30.11R
$$

IDZ002-004-006-007-026-230300-
NORTHERN IDAHO


CITY           SKY/WX    TMP DP  RH WIND       PRES   REMARKS
LEWISTON       SUNNY     78  31  17 NW5       30.16S
LOWELL           N/A     65  45  48 CALM      30.17R
COEUR D`ALENE  SUNNY     71  37  28 SW6       30.19S
MULLAN PASS    SUNNY     55  28  35 N5        30.29S
$$




USA.gov is the U.S. government's official web portal to all federal, state and local government web resources and services.